Welcome to the New NWS' Forecast!
Most changes are behind the scenes, but click here for differences you might notice.

Regional Weather Roundup (RWR)

Issued by Gray - Portland, ME (GYX)

                            
000
ASUS41 KGYX 082010
RWRGYX
WEATHER ROUNDUP FOR MAINE AND NEW HAMPSHIRE
NATIONAL WEATHER SERVICE GRAY ME
300 PM EST SAT DEC 08 2018

MEZ002-005-006-010-012-015-018-020-021-024-026-027-029-082100-
MAINE
  
CITY           SKY/WX    TMP DP  RH WIND       PRES   REMARKS
PORTLAND       FAIR      25  -4  28 N9        30.36S                  
SANFORD        FAIR      24  -3  30 NW10      30.35S WCI  14          
BAR HARBOR     FAIR      18  -3  39 NW8       30.33R                  
WISCASSET      FAIR      23  -7  26 VRB3      30.36S                  
ROCKLAND       FAIR      21   0  39 NW6       30.34S                  
FRYEBURG       FAIR      21 -11  23 W8        30.33S                  
LEWISTONAUBURN FAIR      21  -4  33 NW13      30.35R WCI   9          
AUGUSTA        FAIR      20  -5  33 NW9       30.33S                  
WATERVILLE     FAIR      20  -2  38 MISG      30.30S                  
BANGOR         MOCLDY    19  -4  36 NW6       30.33S                  
GREENVILLE       N/A     10  -5  50 NW12G17   30.19F WCI  -5          
MILLINOCKET    FAIR      13  -4  46 NW10G21   30.30S WCI   0          
HOULTON        FAIR      10   0  63 NW7       30.25S                  
PRESQUE ISLE   FAIR       9  -1  64 NW9       30.27S                  
FRENCHVILLE    FAIR       7  -5  57 NW7       30.21S                  
CARIBOU        FAIR       8  -3  61 NW9       30.25S                  
$$

NHZ002-005-008-009-011-012-014-082100-
NEW HAMPSHIRE
  
CITY           SKY/WX    TMP DP  RH WIND       PRES   REMARKS
PORTSMOUTH     PTCLDY    26  -8  22 W10       30.35S WCI  15          
ROCHESTER      FAIR      24  -6  26 NW16G22   30.33F WCI  11          
NASHUA         FAIR      27   2  34 NW16G23   30.38S WCI  15          
MANCHESTER     FAIR      27  -2  28 NW13      30.37R WCI  16          
CONCORD        FAIR      25   1  35 W12       30.37S WCI  14          
LACONIA        FAIR      22  -2  35 W10       30.35S WCI  11          
PLYMOUTH       FAIR      21  -4  32 W7        30.37S                  
BERLIN         FAIR      16  -6  37 W8        30.31R                  
WHITEFIELD     FAIR      15  -4  42 W7        30.34R                  
JAFFREY        FAIR      24   0  35 W5        30.32S                  
KEENE          FAIR      27   2  34 NW8       30.38S                  
LEBANON        FAIR      24   1  36 NW6       30.36F                  
MT WASHINGTON  PTCLDY   -11 -15  84 NW61G67     N/A  WCI -49          
$$

VTZ005-007-008-082100-
VERMONT
  
CITY           SKY/WX    TMP DP  RH WIND       PRES   REMARKS
ST JOHNSBURY     N/A     17  -4  39 MISG      30.36S                  
MONTPELIER     FAIR      16   0  49 N6        30.37F                  
BURLINGTON     CLOUDY    19   6  57 SE3       30.41F                  
$$

MAZ007-012-024-CTZ003-RIZ002-NYZ038-NYZ072-082100-
SOUTHERN NEW ENGLAND AND NY
  
CITY           SKY/WX    TMP DP  RH WIND       PRES   REMARKS
BOSTON         FAIR      30  -4  23 W9        30.39R                  
WORCESTER      FAIR      26  -2  29 NW12      30.33R WCI  16          
NANTUCKET      FAIR      29   5  36 NW14      30.37F WCI  18          
PROVIDENCE     FAIR      31   3  30 NW14      30.40R                  
HARTFORD       PTSUNNY   30   6  36 NW12      30.41S                  
ALBANY         PTSUNNY   28   9  44 NW3       30.42F                  
NEW YORK CITY  CLOUDY    36  15  42 W12       30.43S                  
$$

ANZ081-ANZ082-ANZ150-NHZ014-MEZ023>029-082100-
COASTAL MARINE OBSERVATIONS
  
STATION/POSITION TIME  TEMP    WIND        PRES    WAVE
                       AIR SEA DIR/SP/G            HT/PER
                 (UTC) (F)     (DEG/KT/KT) (MB)    (FT/S)
MOUNT DESERT ROC 2000   21     290/ 19/ 23 1026.4S
MATINICUS ROCK   1900   22     320/ 13/ 15 1026.8F
ISLE OF SHOALS   1900   24     280/ 17/ 21 1027.6F
JEFFREYS LEDGE   1908      46                N/A     3/ 4
$$

.............KEY..............
   WCI - WIND CHILL
   TC  - TEMPERATURE IN CELSIUS
   VSB - VISIBILITY IN MILES
   HX  - HEAT INDEX
   FAIR- INDICATES FEW OR NO CLOUDS BELOW 12,000 FT, WITH NO 
         SIGNIFICANT WEATHER AND/OR OBSTRUCTIONS TO VISIBILITY.